Time,TemperatureF,DewpointF,PressureIn,WindDirection,WindDirectionDegrees,WindSpeedMPH,WindSpeedGustMPH,Humidity,HourlyPrecipIn,Conditions,Clouds,dailyrainin,SoftwareType,DateUTC
2013-06-29 00:02:00,69.4,55.8,29.95,WNW,293,0.0,0.0,62,0.00,,,0.00,WUHU216HW,2013-06-29 05:02:00,
2013-06-29 00:07:00,69.0,55.9,29.94,WNW,293,0.0,0.0,63,0.00,,,0.00,WUHU216HW,2013-06-29 05:07:00,
2013-06-29 00:12:00,68.9,55.7,29.95,WNW,293,0.0,0.0,63,0.00,,,0.00,WUHU216HW,2013-06-29 05:12:00,
2013-06-29 00:17:00,68.7,56.0,29.94,WNW,293,0.0,0.0,64,0.00,,,0.00,WUHU216HW,2013-06-29 05:17:00,
2013-06-29 00:22:00,68.7,56.0,29.94,WNW,293,0.0,0.0,64,0.00,,,0.00,WUHU216HW,2013-06-29 05:22:00,
2013-06-29 00:27:00,68.5,55.8,29.94,WNW,293,0.0,0.0,64,0.00,,,0.00,WUHU216HW,2013-06-29 05:27:00,
2013-06-29 00:32:00,68.3,55.6,29.94,WNW,293,0.0,0.0,64,0.00,,,0.00,WUHU216HW,2013-06-29 05:32:00,
2013-06-29 00:37:00,68.1,55.9,29.94,WNW,293,0.0,0.0,65,0.00,,,0.00,WUHU216HW,2013-06-29 05:37:00,
2013-06-29 00:45:00,68.0,55.7,29.94,WNW,293,0.0,0.0,65,0.00,,,0.00,WUHU216HW,2013-06-29 05:45:00,
2013-06-29 00:50:00,67.8,55.5,29.94,WNW,293,0.0,0.0,65,0.00,,,0.00,WUHU216HW,2013-06-29 05:50:00,
2013-06-29 00:55:00,67.8,55.5,29.94,WNW,293,0.0,0.0,65,0.00,,,0.00,WUHU216HW,2013-06-29 05:55:00,
2013-06-29 01:00:00,67.8,55.5,29.94,WNW,293,0.0,0.0,65,0.00,,,0.00,WUHU216HW,2013-06-29 06:00:00,
2013-06-29 01:05:00,67.8,55.5,29.94,WNW,293,0.0,0.0,65,0.00,,,0.00,WUHU216HW,2013-06-29 06:05:00,
2013-06-29 01:10:00,67.6,55.8,29.94,WNW,293,0.0,0.0,66,0.00,,,0.00,WUHU216HW,2013-06-29 06:10:00,
2013-06-29 01:15:00,67.6,55.8,29.94,WNW,293,0.0,0.0,66,0.00,,,0.00,WUHU216HW,2013-06-29 06:15:00,
2013-06-29 01:20:00,67.6,55.8,29.94,WNW,293,0.0,0.0,66,0.00,,,0.00,WUHU216HW,2013-06-29 06:20:00,
2013-06-29 01:25:00,67.6,55.8,29.94,WNW,293,0.0,0.0,66,0.00,,,0.00,WUHU216HW,2013-06-29 06:25:00,
2013-06-29 01:30:00,67.4,55.6,29.94,WNW,293,0.0,0.0,66,0.00,,,0.00,WUHU216HW,2013-06-29 06:30:00,
2013-06-29 01:35:00,67.4,55.6,29.94,WNW,293,0.0,0.0,66,0.00,,,0.00,WUHU216HW,2013-06-29 06:35:00,
2013-06-29 01:40:00,67.2,55.5,29.94,WNW,293,0.0,0.0,67,0.00,,,0.00,WUHU216HW,2013-06-29 06:40:00,
2013-06-29 01:45:00,67.2,55.5,29.94,WNW,293,0.6,0.6,67,0.00,,,0.00,WUHU216HW,2013-06-29 06:45:00,
2013-06-29 01:50:00,67.1,55.7,29.94,WNW,293,0.0,0.6,67,0.00,,,0.00,WUHU216HW,2013-06-29 06:50:00,
2013-06-29 01:55:00,67.1,55.7,29.94,WNW,293,0.0,0.6,67,0.00,,,0.00,WUHU216HW,2013-06-29 06:55:00,
2013-06-29 02:00:00,66.9,55.5,29.94,WNW,293,0.0,0.0,67,0.00,,,0.00,WUHU216HW,2013-06-29 07:00:00,
2013-06-29 02:05:00,66.9,55.5,29.94,WNW,293,0.0,0.0,67,0.00,,,0.00,WUHU216HW,2013-06-29 07:05:00,
2013-06-29 02:10:00,66.9,55.5,29.94,WNW,293,0.0,0.0,67,0.00,,,0.00,WUHU216HW,2013-06-29 07:10:00,
2013-06-29 02:15:00,66.9,55.5,29.94,WNW,293,0.0,0.0,67,0.00,,,0.00,WUHU216HW,2013-06-29 07:15:00,
2013-06-29 02:20:00,66.7,55.4,29.94,WNW,293,0.0,0.0,67,0.00,,,0.00,WUHU216HW,2013-06-29 07:20:00,
2013-06-29 02:25:00,66.7,55.4,29.94,WNW,293,0.0,0.0,68,0.00,,,0.00,WUHU216HW,2013-06-29 07:25:00,
2013-06-29 02:30:00,66.5,55.6,29.94,WNW,293,0.0,0.0,68,0.00,,,0.00,WUHU216HW,2013-06-29 07:30:00,
2013-06-29 02:35:00,66.3,55.0,29.94,WNW,293,0.0,0.0,67,0.00,,,0.00,WUHU216HW,2013-06-29 07:35:00,
2013-06-29 02:40:00,66.3,55.0,29.94,WNW,293,0.0,0.0,67,0.00,,,0.00,WUHU216HW,2013-06-29 07:40:00,
2013-06-29 02:45:00,66.3,55.0,29.94,WNW,293,0.0,0.0,68,0.00,,,0.00,WUHU216HW,2013-06-29 07:45:00,
2013-06-29 02:50:00,66.2,55.2,29.94,WNW,293,0.0,0.0,68,0.00,,,0.00,WUHU216HW,2013-06-29 07:50:00,
2013-06-29 02:55:00,66.0,55.1,29.93,WNW,293,0.0,0.0,68,0.00,,,0.00,WUHU216HW,2013-06-29 07:55:00,
2013-06-29 03:00:00,66.0,55.1,29.93,WNW,293,0.0,0.0,68,0.00,,,0.00,WUHU216HW,2013-06-29 08:00:00,
2013-06-29 03:05:00,66.0,55.1,29.93,WNW,293,0.0,0.0,68,0.00,,,0.00,WUHU216HW,2013-06-29 08:05:00,
2013-06-29 03:10:00,66.0,55.1,29.93,WNW,293,2.6,2.6,68,0.00,,,0.00,WUHU216HW,2013-06-29 08:10:00,
2013-06-29 03:15:00,66.0,55.1,29.93,WNW,293,0.0,2.6,68,0.00,,,0.00,WUHU216HW,2013-06-29 08:15:00,
2013-06-29 03:20:00,66.0,55.1,29.94,WNW,293,0.0,2.6,69,0.00,,,0.00,WUHU216HW,2013-06-29 08:20:00,
2013-06-29 03:25:00,65.8,55.3,29.93,WNW,293,0.0,0.0,69,0.00,,,0.00,WUHU216HW,2013-06-29 08:25:00,
2013-06-29 03:30:00,65.8,55.3,29.93,WNW,293,0.0,0.0,69,0.00,,,0.00,WUHU216HW,2013-06-29 08:30:00,
2013-06-29 03:35:00,65.8,55.3,29.93,WNW,293,0.0,0.0,69,0.00,,,0.00,WUHU216HW,2013-06-29 08:35:00,
2013-06-29 03:40:00,65.6,55.2,29.93,WNW,293,0.0,0.0,70,0.00,,,0.00,WUHU216HW,2013-06-29 08:40:00,
2013-06-29 03:45:00,65.4,55.4,29.93,WNW,293,0.0,0.0,70,0.00,,,0.00,WUHU216HW,2013-06-29 08:45:00,
2013-06-29 03:50:00,65.4,55.4,29.93,NW,315,0.0,0.0,70,0.00,,,0.00,WUHU216HW,2013-06-29 08:50:00,
2013-06-29 03:55:00,65.4,55.4,29.93,WNW,293,0.0,0.0,70,0.00,,,0.00,WUHU216HW,2013-06-29 08:55:00,
2013-06-29 04:00:00,65.4,55.4,29.93,WNW,293,0.0,1.5,70,0.00,,,0.00,WUHU216HW,2013-06-29 09:00:00,
2013-06-29 04:05:00,65.4,55.4,29.93,NW,315,0.0,1.5,70,0.00,,,0.00,WUHU216HW,2013-06-29 09:05:00,
2013-06-29 04:10:00,65.4,55.4,29.94,NW,315,0.0,0.0,70,0.00,,,0.00,WUHU216HW,2013-06-29 09:10:00,
2013-06-29 04:15:00,65.3,55.3,29.93,NW,315,0.0,2.2,70,0.00,,,0.00,WUHU216HW,2013-06-29 09:15:00,
2013-06-29 04:20:00,65.3,55.3,29.94,WNW,293,0.0,2.9,71,0.00,,,0.00,WUHU216HW,2013-06-29 09:20:00,
2013-06-29 04:25:00,65.3,55.3,29.94,WNW,293,0.0,2.9,70,0.00,,,0.00,WUHU216HW,2013-06-29 09:25:00,
2013-06-29 04:30:00,65.1,55.5,29.94,WNW,293,0.0,0.2,71,0.00,,,0.00,WUHU216HW,2013-06-29 09:30:00,
2013-06-29 04:35:00,64.9,55.3,29.94,WNW,293,0.0,0.2,71,0.00,,,0.00,WUHU216HW,2013-06-29 09:35:00,
2013-06-29 04:40:00,64.9,55.3,29.94,WNW,293,0.0,0.0,72,0.00,,,0.00,WUHU216HW,2013-06-29 09:40:00,
2013-06-29 04:45:00,64.7,55.5,29.94,WNW,293,0.0,0.0,72,0.00,,,0.00,WUHU216HW,2013-06-29 09:45:00,
2013-06-29 04:50:00,64.7,55.5,29.93,WNW,293,0.0,0.0,72,0.00,,,0.00,WUHU216HW,2013-06-29 09:50:00,
2013-06-29 04:55:00,64.7,55.5,29.93,WNW,293,0.0,0.0,72,0.00,,,0.00,WUHU216HW,2013-06-29 09:55:00,
2013-06-29 05:00:00,64.5,55.3,29.94,WNW,293,0.0,0.0,72,0.00,,,0.00,WUHU216HW,2013-06-29 10:00:00,
2013-06-29 05:05:00,64.5,55.3,29.93,WNW,293,1.1,1.1,72,0.00,,,0.00,WUHU216HW,2013-06-29 10:05:00,
2013-06-29 05:10:00,64.5,55.3,29.94,WNW,293,0.0,1.1,72,0.00,,,0.00,WUHU216HW,2013-06-29 10:10:00,
2013-06-29 05:15:00,64.5,55.3,29.94,WNW,293,0.0,1.1,72,0.00,,,0.00,WUHU216HW,2013-06-29 10:15:00,
2013-06-29 05:20:00,64.5,55.3,29.94,NW,315,0.0,0.0,72,0.00,,,0.00,WUHU216HW,2013-06-29 10:20:00,
2013-06-29 05:25:00,64.5,55.3,29.94,WNW,293,0.0,0.0,72,0.00,,,0.00,WUHU216HW,2013-06-29 10:25:00,
2013-06-29 05:30:00,64.5,55.3,29.94,WNW,293,1.7,1.7,72,0.00,,,0.00,WUHU216HW,2013-06-29 10:30:00,
2013-06-29 05:35:00,64.4,55.2,29.95,WNW,293,0.0,1.7,72,0.00,,,0.00,WUHU216HW,2013-06-29 10:35:00,
2013-06-29 05:40:00,64.2,55.0,29.95,WNW,293,0.0,1.7,72,0.00,,,0.00,WUHU216HW,2013-06-29 10:40:00,
2013-06-29 05:45:00,64.2,55.0,29.94,WNW,293,0.0,2.2,73,0.00,,,0.00,WUHU216HW,2013-06-29 10:45:00,
2013-06-29 05:50:00,64.0,55.2,29.95,WNW,293,0.0,2.2,73,0.00,,,0.00,WUHU216HW,2013-06-29 10:50:00,
2013-06-29 05:55:00,64.0,55.2,29.95,WNW,293,0.0,0.0,73,0.00,,,0.00,WUHU216HW,2013-06-29 10:55:00,
2013-06-29 06:00:00,64.0,55.2,29.95,WNW,293,1.7,1.7,73,0.00,,,0.00,WUHU216HW,2013-06-29 11:00:00,
2013-06-29 06:05:00,63.6,55.2,29.95,WNW,293,1.3,1.7,74,0.00,,,0.00,WUHU216HW,2013-06-29 11:05:00,
2013-06-29 06:10:00,63.6,55.2,29.95,WNW,293,0.0,1.7,74,0.00,,,0.00,WUHU216HW,2013-06-29 11:10:00,
2013-06-29 06:15:00,63.3,54.8,29.95,WNW,293,0.0,1.3,74,0.00,,,0.00,WUHU216HW,2013-06-29 11:15:00,
2013-06-29 06:20:00,63.3,54.8,29.95,WNW,293,0.0,0.0,75,0.00,,,0.00,WUHU216HW,2013-06-29 11:20:00,
2013-06-29 06:25:00,63.3,54.8,29.95,WNW,293,2.6,2.6,75,0.00,,,0.00,WUHU216HW,2013-06-29 11:25:00,
2013-06-29 06:30:00,63.3,54.8,29.95,WNW,293,1.1,2.6,75,0.00,,,0.00,WUHU216HW,2013-06-29 11:30:00,
2013-06-29 06:35:00,63.3,54.8,29.95,WNW,293,2.2,2.6,75,0.00,,,0.00,WUHU216HW,2013-06-29 11:35:00,
2013-06-29 06:40:00,63.5,55.4,29.95,NW,315,0.0,2.6,75,0.00,,,0.00,WUHU216HW,2013-06-29 11:40:00,
2013-06-29 06:45:00,63.5,55.4,29.95,WNW,293,0.0,2.2,75,0.00,,,0.00,WUHU216HW,2013-06-29 11:45:00,
2013-06-29 06:50:00,63.6,55.2,29.95,WNW,293,1.5,2.9,74,0.00,,,0.00,WUHU216HW,2013-06-29 11:50:00,
2013-06-29 06:55:00,63.8,55.4,29.95,WNW,293,0.0,2.9,74,0.00,,,0.00,WUHU216HW,2013-06-29 11:55:00,
2013-06-29 07:00:00,64.0,55.5,29.95,NW,315,1.3,1.5,74,0.00,,,0.00,WUHU216HW,2013-06-29 12:00:00,
2013-06-29 07:05:00,64.0,55.5,29.95,NW,315,0.0,3.5,74,0.00,,,0.00,WUHU216HW,2013-06-29 12:05:00,
2013-06-29 07:10:00,64.2,55.7,29.95,WNW,293,1.7,3.5,74,0.00,,,0.00,WUHU216HW,2013-06-29 12:10:00,
2013-06-29 07:15:00,64.2,55.7,29.95,WNW,293,0.6,2.9,74,0.00,,,0.00,WUHU216HW,2013-06-29 12:15:00,
2013-06-29 07:20:00,64.7,56.2,29.95,WNW,293,2.2,2.9,74,0.00,,,0.00,WUHU216HW,2013-06-29 12:20:00,
2013-06-29 07:25:00,64.9,56.4,29.95,WNW,293,2.2,4.4,74,0.00,,,0.00,WUHU216HW,2013-06-29 12:25:00,
2013-06-29 07:30:00,65.1,56.6,29.95,NW,315,0.0,4.4,74,0.00,,,0.00,WUHU216HW,2013-06-29 12:30:00,
2013-06-29 07:35:00,65.6,56.7,29.95,NW,315,5.8,5.8,73,0.00,,,0.00,WUHU216HW,2013-06-29 12:35:00,
2013-06-29 07:40:00,65.8,56.9,29.95,WNW,293,0.0,5.8,73,0.00,,,0.00,WUHU216HW,2013-06-29 12:40:00,
2013-06-29 07:45:00,66.2,56.8,29.95,WNW,293,1.5,3.1,72,0.00,,,0.00,WUHU216HW,2013-06-29 12:45:00,
2013-06-29 07:50:00,66.5,56.8,29.95,NNW,338,0.0,3.1,71,0.00,,,0.00,WUHU216HW,2013-06-29 12:50:00,
2013-06-29 07:55:00,66.9,57.2,29.95,WNW,293,5.8,5.8,71,0.00,,,0.00,WUHU216HW,2013-06-29 12:55:00,
2013-06-29 08:00:00,67.2,57.2,29.95,WNW,293,1.3,6.4,70,0.00,,,0.00,WUHU216HW,2013-06-29 13:00:00,
2013-06-29 08:05:00,67.6,57.5,29.95,WNW,293,4.9,8.0,70,0.00,,,0.00,WUHU216HW,2013-06-29 13:05:00,
2013-06-29 08:10:00,68.0,57.9,29.95,North,0,0.6,8.0,70,0.00,,,0.00,WUHU216HW,2013-06-29 13:10:00,
2013-06-29 08:15:00,68.1,57.6,29.95,NNW,338,2.2,6.9,69,0.00,,,0.00,WUHU216HW,2013-06-29 13:15:00,
2013-06-29 08:21:00,68.5,57.5,29.95,NNW,338,3.1,8.5,68,0.00,,,0.00,WUHU216HW,2013-06-29 13:21:00,
2013-06-29 08:26:00,68.9,57.8,29.95,WNW,293,1.5,8.5,68,0.00,,,0.00,WUHU216HW,2013-06-29 13:26:00,
2013-06-29 08:31:00,69.0,58.0,29.95,North,0,2.9,5.5,68,0.00,,,0.00,WUHU216HW,2013-06-29 13:31:00,
2013-06-29 08:36:00,69.4,58.3,29.95,WNW,293,0.8,2.9,68,0.00,,,0.00,WUHU216HW,2013-06-29 13:36:00,
2013-06-29 08:41:00,69.6,58.5,29.95,NNW,338,4.0,4.0,68,0.00,,,0.00,WUHU216HW,2013-06-29 13:41:00,
2013-06-29 08:46:00,69.9,58.0,29.95,WNW,293,2.4,7.8,66,0.00,,,0.00,WUHU216HW,2013-06-29 13:46:00,
2013-06-29 08:51:00,70.3,58.8,29.95,WNW,293,4.2,7.8,67,0.00,,,0.00,WUHU216HW,2013-06-29 13:51:00,
2013-06-29 08:56:00,70.5,58.9,29.95,North,0,4.4,6.7,67,0.00,,,0.00,WUHU216HW,2013-06-29 13:56:00,
2013-06-29 09:01:00,70.8,59.3,29.96,NNE,23,3.3,4.9,67,0.00,,,0.00,WUHU216HW,2013-06-29 14:01:00,
2013-06-29 09:06:00,71.2,59.2,29.96,WNW,293,5.3,9.6,66,0.00,,,0.00,WUHU216HW,2013-06-29 14:06:00,
2013-06-29 09:11:00,71.2,59.2,29.95,WNW,293,6.0,9.6,66,0.00,,,0.00,WUHU216HW,2013-06-29 14:11:00,
2013-06-29 09:16:00,71.7,59.3,29.96,NW,315,6.7,7.8,65,0.00,,,0.00,WUHU216HW,2013-06-29 14:16:00,
2013-06-29 09:21:00,71.9,59.5,29.95,WNW,293,5.5,7.8,65,0.00,,,0.00,WUHU216HW,2013-06-29 14:21:00,
2013-06-29 09:26:00,72.1,59.6,29.95,WNW,293,3.5,6.9,65,0.00,,,0.00,WUHU216HW,2013-06-29 14:26:00,
2013-06-29 09:31:00,72.5,59.1,29.95,North,0,7.3,7.3,63,0.00,,,0.00,WUHU216HW,2013-06-29 14:31:00,
2013-06-29 09:36:00,72.6,59.3,29.95,NNW,338,2.9,7.3,63,0.00,,,0.00,WUHU216HW,2013-06-29 14:36:00,
2013-06-29 09:41:00,73.0,59.2,29.95,NW,315,1.5,6.4,62,0.00,,,0.00,WUHU216HW,2013-06-29 14:41:00,
2013-06-29 09:46:00,73.2,58.4,29.95,North,0,0.0,10.7,60,0.00,,,0.00,WUHU216HW,2013-06-29 14:46:00,
2013-06-29 09:51:00,73.5,58.8,29.96,NNW,338,6.2,10.7,60,0.00,,,0.00,WUHU216HW,2013-06-29 14:51:00,
2013-06-29 09:56:00,73.7,57.9,29.96,WNW,293,4.4,6.9,59,0.00,,,0.00,WUHU216HW,2013-06-29 14:56:00,
2013-06-29 10:01:00,73.9,59.1,29.95,SSW,203,2.4,6.9,60,0.00,,,0.00,WUHU216HW,2013-06-29 15:01:00,
2013-06-29 10:06:00,74.1,58.8,29.95,North,0,2.0,11.6,59,0.00,,,0.00,WUHU216HW,2013-06-29 15:06:00,
2013-06-29 10:11:00,74.6,57.8,29.95,WNW,293,5.8,11.6,56,0.00,,,0.00,WUHU216HW,2013-06-29 15:11:00,
2013-06-29 10:16:00,74.8,58.0,29.95,WNW,293,6.0,7.8,55,0.00,,,0.00,WUHU216HW,2013-06-29 15:16:00,
2013-06-29 10:21:00,74.8,57.5,29.95,NW,315,4.9,7.8,55,0.00,,,0.00,WUHU216HW,2013-06-29 15:21:00,
2013-06-29 10:26:00,75.0,58.7,29.95,North,0,1.7,12.5,57,0.00,,,0.00,WUHU216HW,2013-06-29 15:26:00,
2013-06-29 10:31:00,75.3,58.5,29.94,NW,315,4.9,12.5,56,0.00,,,0.00,WUHU216HW,2013-06-29 15:31:00,
2013-06-29 10:36:00,75.7,58.9,29.94,WNW,293,5.3,10.0,56,0.00,,,0.00,WUHU216HW,2013-06-29 15:36:00,
2013-06-29 10:41:00,75.9,58.5,29.94,NW,315,3.8,10.0,56,0.00,,,0.00,WUHU216HW,2013-06-29 15:41:00,
2013-06-29 10:48:00,76.2,58.3,29.94,East,90,2.9,7.6,54,0.00,,,0.00,WUHU216HW,2013-06-29 15:48:00,
2013-06-29 10:53:00,76.6,58.7,29.94,North,0,8.2,9.1,54,0.00,,,0.00,WUHU216HW,2013-06-29 15:53:00,
2013-06-29 10:58:00,76.8,58.8,29.94,North,0,1.5,9.3,54,0.00,,,0.00,WUHU216HW,2013-06-29 15:58:00,
2013-06-29 11:03:00,77.3,60.3,29.94,North,0,3.1,9.3,56,0.00,,,0.00,WUHU216HW,2013-06-29 16:03:00,
2013-06-29 11:08:00,77.9,58.3,29.94,NNW,338,6.4,10.7,51,0.00,,,0.00,WUHU216HW,2013-06-29 16:08:00,
2013-06-29 11:13:00,77.9,58.3,29.94,NNW,338,5.1,10.7,51,0.00,,,0.00,WUHU216HW,2013-06-29 16:13:00,
2013-06-29 11:18:00,78.0,57.9,29.94,North,0,4.6,7.6,50,0.00,,,0.00,WUHU216HW,2013-06-29 16:18:00,
2013-06-29 11:23:00,78.6,59.0,29.94,NNW,338,4.9,7.6,51,0.00,,,0.00,WUHU216HW,2013-06-29 16:23:00,
2013-06-29 11:28:00,78.6,57.8,29.95,NNW,338,4.2,10.0,49,0.00,,,0.00,WUHU216HW,2013-06-29 16:28:00,
2013-06-29 11:33:00,78.6,57.8,29.94,North,0,6.0,10.0,49,0.00,,,0.00,WUHU216HW,2013-06-29 16:33:00,
2013-06-29 11:38:00,78.6,57.8,29.94,NW,315,2.0,10.5,50,0.00,,,0.00,WUHU216HW,2013-06-29 16:38:00,
2013-06-29 11:43:00,79.3,58.5,29.95,West,270,6.7,10.5,49,0.00,,,0.00,WUHU216HW,2013-06-29 16:43:00,
2013-06-29 11:48:00,79.8,58.3,29.94,West,270,3.3,9.3,48,0.00,,,0.00,WUHU216HW,2013-06-29 16:48:00,
2013-06-29 11:53:00,80.2,57.4,29.94,North,0,4.6,8.9,47,0.00,,,0.00,WUHU216HW,2013-06-29 16:53:00,
2013-06-29 11:58:00,80.7,57.3,29.94,NE,45,1.1,8.9,45,0.00,,,0.00,WUHU216HW,2013-06-29 16:58:00,
2013-06-29 12:03:00,81.1,57.0,29.94,NNW,338,6.9,9.8,44,0.00,,,0.00,WUHU216HW,2013-06-29 17:03:00,
2013-06-29 12:08:00,81.1,57.6,29.95,WNW,293,6.0,10.9,45,0.00,,,0.00,WUHU216HW,2013-06-29 17:08:00,
2013-06-29 12:13:00,81.6,56.9,29.94,North,0,9.8,10.9,43,0.00,,,0.00,WUHU216HW,2013-06-29 17:13:00,
2013-06-29 12:18:00,82.0,59.1,29.94,NNW,338,2.2,10.2,46,0.00,,,0.00,WUHU216HW,2013-06-29 17:18:00,
2013-06-29 12:23:00,82.4,58.8,29.94,North,0,7.8,9.8,45,0.00,,,0.00,WUHU216HW,2013-06-29 17:23:00,
2013-06-29 12:28:00,82.5,56.5,29.94,North,0,8.7,11.1,41,0.00,,,0.00,WUHU216HW,2013-06-29 17:28:00,
2013-06-29 12:33:00,82.7,57.9,29.94,NNW,338,7.1,11.1,43,0.00,,,0.00,WUHU216HW,2013-06-29 17:33:00,
2013-06-29 12:38:00,83.1,58.2,29.94,North,0,8.2,12.7,43,0.00,,,0.00,WUHU216HW,2013-06-29 17:38:00,
2013-06-29 12:43:00,83.4,57.3,29.94,North,0,11.6,12.7,41,0.00,,,0.00,WUHU216HW,2013-06-29 17:43:00,
2013-06-29 12:48:00,83.4,57.3,29.94,NNW,338,8.0,12.7,41,0.00,,,0.00,WUHU216HW,2013-06-29 17:48:00,
2013-06-29 12:53:00,83.3,57.1,29.94,NE,45,4.2,12.7,41,0.00,,,0.00,WUHU216HW,2013-06-29 17:53:00,
2013-06-29 12:58:00,83.6,57.5,29.95,North,0,6.2,11.8,41,0.00,,,0.00,WUHU216HW,2013-06-29 17:58:00,
2013-06-29 13:03:00,83.4,59.2,29.94,North,0,5.5,10.2,44,0.00,,,0.00,WUHU216HW,2013-06-29 18:03:00,
2013-06-29 13:08:00,83.1,58.2,29.95,NNE,23,6.4,9.1,43,0.00,,,0.00,WUHU216HW,2013-06-29 18:08:00,
2013-06-29 13:13:00,83.3,59.0,29.94,NNW,338,5.1,10.0,44,0.00,,,0.00,WUHU216HW,2013-06-29 18:13:00,
2013-06-29 13:18:00,83.3,58.4,29.94,NW,315,9.1,11.1,43,0.00,,,0.00,WUHU216HW,2013-06-29 18:18:00,
2013-06-29 13:23:00,83.3,58.4,29.94,NNE,23,4.2,11.1,43,0.00,,,0.00,WUHU216HW,2013-06-29 18:23:00,
2013-06-29 13:28:00,83.3,59.0,29.93,NW,315,1.7,9.1,44,0.00,,,0.00,WUHU216HW,2013-06-29 18:28:00,
2013-06-29 13:33:00,83.4,58.6,29.94,North,0,2.6,9.1,43,0.00,,,0.00,WUHU216HW,2013-06-29 18:33:00,
2013-06-29 13:38:00,83.8,58.3,29.94,North,0,3.5,9.1,42,0.00,,,0.00,WUHU216HW,2013-06-29 18:38:00,
2013-06-29 13:43:00,83.6,58.1,29.94,North,0,5.3,10.0,42,0.00,,,0.00,WUHU216HW,2013-06-29 18:43:00,
2013-06-29 13:48:00,83.4,58.6,29.94,West,270,1.7,10.0,44,0.00,,,0.00,WUHU216HW,2013-06-29 18:48:00,
2013-06-29 13:53:00,84.0,59.1,29.94,North,0,6.2,7.3,43,0.00,,,0.00,WUHU216HW,2013-06-29 18:53:00,
2013-06-29 13:58:00,84.0,58.4,29.93,NNW,338,5.8,9.1,42,0.00,,,0.00,WUHU216HW,2013-06-29 18:58:00,
2013-06-29 14:03:00,84.3,58.8,29.93,North,0,8.5,9.8,42,0.00,,,0.00,WUHU216HW,2013-06-29 19:03:00,
2013-06-29 14:08:00,84.7,59.7,29.93,ESE,113,3.8,9.8,43,0.00,,,0.00,WUHU216HW,2013-06-29 19:08:00,
2013-06-29 14:13:00,84.3,58.8,29.93,North,0,0.8,9.8,42,0.00,,,0.00,WUHU216HW,2013-06-29 19:13:00,
2013-06-29 14:18:00,84.3,59.4,29.93,West,270,3.8,8.9,43,0.00,,,0.00,WUHU216HW,2013-06-29 19:18:00,
2013-06-29 14:23:00,83.8,58.3,29.93,North,0,6.2,8.9,42,0.00,,,0.00,WUHU216HW,2013-06-29 19:23:00,
2013-06-29 14:28:00,83.8,58.9,29.93,North,0,6.9,8.7,43,0.00,,,0.00,WUHU216HW,2013-06-29 19:28:00,
2013-06-29 14:33:00,83.8,58.9,29.93,North,0,5.1,8.7,43,0.00,,,0.00,WUHU216HW,2013-06-29 19:33:00,
2013-06-29 14:38:00,84.0,59.1,29.93,North,0,5.3,7.3,44,0.00,,,0.00,WUHU216HW,2013-06-29 19:38:00,
2013-06-29 14:43:00,84.3,60.0,29.93,NNW,338,2.0,7.3,44,0.00,,,0.00,WUHU216HW,2013-06-29 19:43:00,
2013-06-29 14:48:00,85.1,59.4,29.93,North,0,5.8,7.6,42,0.00,,,0.00,WUHU216HW,2013-06-29 19:48:00,
2013-06-29 14:53:00,84.5,58.9,29.93,North,0,3.1,7.6,42,0.00,,,0.00,WUHU216HW,2013-06-29 19:53:00,
2013-06-29 14:58:00,84.0,59.7,29.93,NW,315,1.3,5.8,44,0.00,,,0.00,WUHU216HW,2013-06-29 19:58:00,
2013-06-29 15:03:00,84.0,59.7,29.93,WNW,293,1.3,4.4,44,0.00,,,0.00,WUHU216HW,2013-06-29 20:03:00,
2013-06-29 15:08:00,83.4,59.8,29.93,North,0,0.0,4.4,45,0.00,,,0.00,WUHU216HW,2013-06-29 20:08:00,
2013-06-29 15:13:00,82.9,59.9,29.93,North,0,1.1,1.1,46,0.00,,,0.00,WUHU216HW,2013-06-29 20:13:00,
2013-06-29 15:18:00,83.1,60.1,29.93,NNW,338,0.0,1.7,46,0.00,,,0.00,WUHU216HW,2013-06-29 20:18:00,
2013-06-29 15:23:00,83.4,58.6,29.93,North,0,7.8,7.8,43,0.00,,,0.00,WUHU216HW,2013-06-29 20:23:00,
2013-06-29 15:28:00,83.6,60.0,29.93,North,0,4.2,8.7,45,0.00,,,0.00,WUHU216HW,2013-06-29 20:28:00,
2013-06-29 15:33:00,84.3,60.6,29.93,NNW,338,1.5,8.7,45,0.00,,,0.00,WUHU216HW,2013-06-29 20:33:00,
2013-06-29 15:38:00,84.0,59.7,29.93,WNW,293,7.3,7.3,44,0.00,,,0.00,WUHU216HW,2013-06-29 20:38:00,
2013-06-29 15:43:00,83.4,59.8,29.93,North,0,3.8,7.8,44,0.00,,,0.00,WUHU216HW,2013-06-29 20:43:00,
2013-06-29 15:48:00,82.7,59.1,29.93,West,270,2.2,7.8,45,0.00,,,0.00,WUHU216HW,2013-06-29 20:48:00,
2013-06-29 15:53:00,82.4,59.4,29.93,West,270,2.4,10.7,46,0.00,,,0.00,WUHU216HW,2013-06-29 20:53:00,
2013-06-29 15:58:00,83.1,59.5,29.93,WNW,293,2.2,10.7,45,0.00,,,0.00,WUHU216HW,2013-06-29 20:58:00,
2013-06-29 16:03:00,82.9,59.3,29.93,NNE,23,5.5,8.5,45,0.00,,,0.00,WUHU216HW,2013-06-29 21:03:00,
2013-06-29 16:08:00,82.0,59.1,29.93,North,0,5.8,9.6,47,0.00,,,0.00,WUHU216HW,2013-06-29 21:08:00,
2013-06-29 16:13:00,81.3,59.0,29.93,North,0,1.7,9.6,47,0.00,,,0.00,WUHU216HW,2013-06-29 21:13:00,
2013-06-29 16:18:00,80.9,59.3,29.93,NNW,338,1.3,7.3,48,0.00,,,0.00,WUHU216HW,2013-06-29 21:18:00,
2013-06-29 16:23:00,80.7,59.2,29.93,North,0,3.3,4.9,48,0.00,,,0.00,WUHU216HW,2013-06-29 21:23:00,
2013-06-29 16:28:00,81.1,60.1,29.93,ESE,113,1.7,9.6,49,0.00,,,0.00,WUHU216HW,2013-06-29 21:28:00,
2013-06-29 16:33:00,81.6,58.7,29.93,North,0,9.6,9.6,46,0.00,,,0.00,WUHU216HW,2013-06-29 21:33:00,
2013-06-29 16:38:00,81.6,60.6,29.93,North,0,4.0,9.6,49,0.00,,,0.00,WUHU216HW,2013-06-29 21:38:00,
2013-06-29 16:43:00,82.0,59.1,29.93,North,0,4.6,9.6,46,0.00,,,0.00,WUHU216HW,2013-06-29 21:43:00,
2013-06-29 16:48:00,82.5,60.8,29.93,North,0,0.0,7.3,48,0.00,,,0.00,WUHU216HW,2013-06-29 21:48:00,
2013-06-29 16:53:00,82.7,59.1,29.93,North,0,4.0,7.3,45,0.00,,,0.00,WUHU216HW,2013-06-29 21:53:00,
2013-06-29 16:58:00,82.2,59.8,29.93,NNW,338,0.6,4.6,47,0.00,,,0.00,WUHU216HW,2013-06-29 21:58:00,
2013-06-29 17:03:00,81.6,59.3,29.93,North,0,4.4,10.5,47,0.00,,,0.00,WUHU216HW,2013-06-29 22:03:00,
2013-06-29 17:08:00,81.3,58.4,29.93,North,0,6.7,10.5,46,0.00,,,0.00,WUHU216HW,2013-06-29 22:08:00,
2013-06-29 17:13:00,81.1,58.9,29.93,North,0,3.1,6.7,48,0.00,,,0.00,WUHU216HW,2013-06-29 22:13:00,
2013-06-29 17:18:00,80.9,59.3,29.93,North,0,4.9,6.9,48,0.00,,,0.00,WUHU216HW,2013-06-29 22:18:00,
2013-06-29 17:23:00,80.9,58.7,29.93,North,0,4.4,6.9,47,0.00,,,0.00,WUHU216HW,2013-06-29 22:23:00,
2013-06-29 17:28:00,80.4,58.8,29.93,North,0,3.8,4.9,48,0.00,,,0.00,WUHU216HW,2013-06-29 22:28:00,
2013-06-29 17:33:00,80.4,59.4,29.93,North,0,0.0,5.3,49,0.00,,,0.00,WUHU216HW,2013-06-29 22:33:00,
2013-06-29 17:38:00,80.2,59.3,29.93,NNE,23,1.5,5.3,49,0.00,,,0.00,WUHU216HW,2013-06-29 22:38:00,
2013-06-29 17:43:00,79.5,58.6,29.93,North,0,2.4,7.1,49,0.00,,,0.00,WUHU216HW,2013-06-29 22:43:00,
2013-06-29 17:48:00,79.5,59.8,29.93,NNW,338,8.0,8.0,51,0.00,,,0.00,WUHU216HW,2013-06-29 22:48:00,
2013-06-29 17:53:00,79.7,59.9,29.93,WNW,293,4.9,8.0,51,0.00,,,0.00,WUHU216HW,2013-06-29 22:53:00,
2013-06-29 17:58:00,79.7,59.4,29.93,North,0,2.6,8.0,50,0.00,,,0.00,WUHU216HW,2013-06-29 22:58:00,
2013-06-29 18:03:00,79.8,60.1,29.93,NW,315,0.0,5.3,51,0.00,,,0.00,WUHU216HW,2013-06-29 23:03:00,
2013-06-29 18:06:00,79.8,60.1,29.93,NNW,338,1.1,5.3,50,0.00,,,0.00,WUHU216HW,2013-06-29 23:06:00,
2013-06-29 18:11:00,79.7,58.8,29.93,NNW,338,0.6,6.2,50,0.00,,,0.00,WUHU216HW,2013-06-29 23:11:00,
2013-06-29 18:16:00,79.3,59.1,29.93,WNW,293,1.3,6.2,50,0.00,,,0.00,WUHU216HW,2013-06-29 23:16:00,
2013-06-29 18:21:00,78.9,58.8,29.92,North,0,0.0,1.3,50,0.00,,,0.00,WUHU216HW,2013-06-29 23:21:00,
2013-06-29 18:26:00,78.6,59.0,29.93,North,0,0.0,1.3,51,0.00,,,0.00,WUHU216HW,2013-06-29 23:26:00,
2013-06-29 18:31:00,78.4,58.8,29.93,North,0,0.0,4.9,51,0.00,,,0.00,WUHU216HW,2013-06-29 23:31:00,
2013-06-29 18:36:00,78.4,58.8,29.93,NNW,338,0.0,4.9,51,0.00,,,0.00,WUHU216HW,2013-06-29 23:36:00,
2013-06-29 18:41:00,78.4,58.8,29.93,NNW,338,0.0,0.0,51,0.00,,,0.00,WUHU216HW,2013-06-29 23:41:00,
2013-06-29 18:46:00,78.2,59.1,29.93,North,0,2.4,4.4,52,0.00,,,0.00,WUHU216HW,2013-06-29 23:46:00,
2013-06-29 18:51:00,78.2,59.1,29.93,North,0,0.0,4.4,51,0.00,,,0.00,WUHU216HW,2013-06-29 23:51:00,
2013-06-29 18:56:00,78.0,58.5,29.93,NNW,338,4.2,5.3,51,0.00,,,0.00,WUHU216HW,2013-06-29 23:56:00,
2013-06-29 19:01:00,77.9,58.3,29.93,NW,315,2.2,5.3,51,0.00,,,0.00,WUHU216HW,2013-06-30 00:01:00,
2013-06-29 19:06:00,77.9,58.3,29.93,North,0,0.0,4.2,51,0.00,,,0.00,WUHU216HW,2013-06-30 00:06:00,
2013-06-29 19:11:00,77.7,58.6,29.93,WNW,293,0.0,2.9,52,0.00,,,0.00,WUHU216HW,2013-06-30 00:11:00,
2013-06-29 19:16:00,77.7,58.6,29.93,North,0,0.4,2.9,51,0.00,,,0.00,WUHU216HW,2013-06-30 00:16:00,
2013-06-29 19:21:00,77.5,58.5,29.93,North,0,0.0,0.4,52,0.00,,,0.00,WUHU216HW,2013-06-30 00:21:00,
2013-06-29 19:26:00,77.5,58.5,29.93,WNW,293,0.4,0.8,53,0.00,,,0.00,WUHU216HW,2013-06-30 00:26:00,
2013-06-29 19:31:00,77.3,58.8,29.93,WNW,293,0.0,1.1,53,0.00,,,0.00,WUHU216HW,2013-06-30 00:31:00,
2013-06-29 19:36:00,77.1,58.7,29.93,NW,315,0.0,3.3,53,0.00,,,0.00,WUHU216HW,2013-06-30 00:36:00,
2013-06-29 19:41:00,76.8,58.3,29.94,NW,315,0.0,3.3,54,0.00,,,0.00,WUHU216HW,2013-06-30 00:41:00,
2013-06-29 19:46:00,76.6,58.7,29.93,West,270,0.0,2.0,54,0.00,,,0.00,WUHU216HW,2013-06-30 00:46:00,
2013-06-29 19:51:00,76.6,58.7,29.93,WNW,293,0.0,0.0,54,0.00,,,0.00,WUHU216HW,2013-06-30 00:51:00,
2013-06-29 19:56:00,76.2,58.3,29.94,North,0,1.7,1.7,54,0.00,,,0.00,WUHU216HW,2013-06-30 00:56:00,
2013-06-29 20:01:00,76.1,58.7,29.94,North,0,0.0,1.7,55,0.00,,,0.00,WUHU216HW,2013-06-30 01:01:00,
2013-06-29 20:06:00,75.9,58.5,29.94,North,0,0.0,1.7,55,0.00,,,0.00,WUHU216HW,2013-06-30 01:06:00,
2013-06-29 20:11:00,75.7,58.4,29.94,North,0,0.0,0.4,55,0.00,,,0.00,WUHU216HW,2013-06-30 01:11:00,
2013-06-29 20:16:00,75.7,58.4,29.94,North,0,0.0,2.6,55,0.00,,,0.00,WUHU216HW,2013-06-30 01:16:00,
2013-06-29 20:21:00,75.5,58.2,29.94,NNW,338,0.0,2.6,55,0.00,,,0.00,WUHU216HW,2013-06-30 01:21:00,
2013-06-29 20:26:00,75.2,58.4,29.94,NNW,338,0.0,0.0,56,0.00,,,0.00,WUHU216HW,2013-06-30 01:26:00,
2013-06-29 20:31:00,75.0,58.2,29.94,NNW,338,0.0,0.0,56,0.00,,,0.00,WUHU216HW,2013-06-30 01:31:00,
2013-06-29 20:36:00,74.8,58.5,29.95,North,0,0.0,0.0,57,0.00,,,0.00,WUHU216HW,2013-06-30 01:36:00,
2013-06-29 20:41:00,74.6,58.3,29.95,North,0,0.0,0.0,57,0.00,,,0.00,WUHU216HW,2013-06-30 01:41:00,
2013-06-29 20:46:00,74.4,58.2,29.94,North,0,0.0,0.0,57,0.00,,,0.00,WUHU216HW,2013-06-30 01:46:00,
2013-06-29 20:51:00,74.1,58.3,29.95,North,0,0.0,0.0,58,0.00,,,0.00,WUHU216HW,2013-06-30 01:51:00,
2013-06-29 20:56:00,73.9,58.1,29.94,North,0,0.0,0.0,59,0.00,,,0.00,WUHU216HW,2013-06-30 01:56:00,
2013-06-29 21:01:00,73.5,58.8,29.94,North,0,0.0,0.0,60,0.00,,,0.00,WUHU216HW,2013-06-30 02:01:00,
2013-06-29 21:06:00,73.2,58.4,29.94,North,0,0.0,0.0,60,0.00,,,0.00,WUHU216HW,2013-06-30 02:06:00,
2013-06-29 21:11:00,73.2,58.4,29.94,North,0,0.0,0.0,61,0.00,,,0.00,WUHU216HW,2013-06-30 02:11:00,
2013-06-29 21:16:00,72.6,58.8,29.94,North,0,0.0,0.0,62,0.00,,,0.00,WUHU216HW,2013-06-30 02:16:00,
2013-06-29 21:21:00,72.5,58.7,29.94,North,0,0.0,0.0,62,0.00,,,0.00,WUHU216HW,2013-06-30 02:21:00,
2013-06-29 21:26:00,72.1,58.8,29.95,NW,315,0.0,0.0,63,0.00,,,0.00,WUHU216HW,2013-06-30 02:26:00,
2013-06-29 21:31:00,71.9,58.6,29.95,NW,315,0.0,0.0,63,0.00,,,0.00,WUHU216HW,2013-06-30 02:31:00,
2013-06-29 21:36:00,71.7,58.9,29.95,NW,315,0.0,0.0,64,0.00,,,0.00,WUHU216HW,2013-06-30 02:36:00,
2013-06-29 21:41:00,71.4,58.5,29.95,WNW,293,0.0,0.0,64,0.00,,,0.00,WUHU216HW,2013-06-30 02:41:00,
2013-06-29 21:46:00,71.2,58.4,29.95,WNW,293,0.0,0.0,65,0.00,,,0.00,WUHU216HW,2013-06-30 02:46:00,
2013-06-29 21:51:00,70.8,58.4,29.96,WNW,293,0.0,0.0,65,0.00,,,0.00,WUHU216HW,2013-06-30 02:51:00,
2013-06-29 21:56:00,70.7,58.7,29.96,WNW,293,0.0,0.0,66,0.00,,,0.00,WUHU216HW,2013-06-30 02:56:00,
2013-06-29 22:01:00,70.3,58.8,29.96,WNW,293,0.0,0.0,67,0.00,,,0.00,WUHU216HW,2013-06-30 03:01:00,
2013-06-29 22:06:00,70.1,58.2,29.96,WNW,293,0.0,0.0,66,0.00,,,0.00,WUHU216HW,2013-06-30 03:06:00,
2013-06-29 22:11:00,69.9,58.0,29.96,WNW,293,0.0,0.0,67,0.00,,,0.00,WUHU216HW,2013-06-30 03:11:00,
2013-06-29 22:16:00,69.6,58.1,29.96,WNW,293,0.0,0.0,68,0.00,,,0.00,WUHU216HW,2013-06-30 03:16:00,
2013-06-29 22:21:00,69.4,58.3,29.96,WNW,293,0.0,0.0,68,0.00,,,0.00,WUHU216HW,2013-06-30 03:21:00,
2013-06-29 22:26:00,69.4,58.3,29.96,WNW,293,0.0,0.0,68,0.00,,,0.00,WUHU216HW,2013-06-30 03:26:00,
2013-06-29 22:31:00,69.0,58.0,29.97,WNW,293,0.0,0.0,69,0.00,,,0.00,WUHU216HW,2013-06-30 03:31:00,
2013-06-29 22:36:00,68.9,58.3,29.97,WNW,293,0.0,0.0,69,0.00,,,0.00,WUHU216HW,2013-06-30 03:36:00,
2013-06-29 22:41:00,68.7,58.1,29.97,WNW,293,0.0,0.0,69,0.00,,,0.00,WUHU216HW,2013-06-30 03:41:00,
2013-06-29 22:46:00,68.5,58.4,29.97,WNW,293,0.0,0.0,70,0.00,,,0.00,WUHU216HW,2013-06-30 03:46:00,
2013-06-29 22:51:00,68.5,58.4,29.97,WNW,293,0.0,0.0,69,0.00,,,0.00,WUHU216HW,2013-06-30 03:51:00,
2013-06-29 22:56:00,68.1,58.0,29.97,WNW,293,0.0,0.0,70,0.00,,,0.00,WUHU216HW,2013-06-30 03:56:00,
2013-06-29 23:01:00,68.0,57.9,29.96,WNW,293,0.0,0.0,70,0.00,,,0.00,WUHU216HW,2013-06-30 04:01:00,
2013-06-29 23:03:00,67.8,57.7,29.96,WNW,293,0.0,0.0,70,0.00,,,0.00,WUHU216HW,2013-06-30 04:03:00,
2013-06-29 23:06:00,67.8,57.7,29.96,WNW,293,0.0,0.0,71,0.00,,,0.00,WUHU216HW,2013-06-30 04:06:00,
2013-06-29 23:11:00,67.6,57.9,29.96,WNW,293,0.0,0.0,71,0.00,,,0.00,WUHU216HW,2013-06-30 04:11:00,
2013-06-29 23:16:00,67.4,57.7,29.96,WNW,293,0.0,0.0,71,0.00,,,0.00,WUHU216HW,2013-06-30 04:16:00,
2013-06-29 23:21:00,67.2,57.5,29.96,WNW,293,0.0,0.0,71,0.00,,,0.00,WUHU216HW,2013-06-30 04:21:00,
2013-06-29 23:26:00,67.1,57.7,29.96,WNW,293,0.0,0.0,72,0.00,,,0.00,WUHU216HW,2013-06-30 04:26:00,
2013-06-29 23:31:00,66.9,57.5,29.96,WNW,293,0.0,0.0,72,0.00,,,0.00,WUHU216HW,2013-06-30 04:31:00,
2013-06-29 23:36:00,66.7,57.4,29.96,WNW,293,0.0,0.0,72,0.00,,,0.00,WUHU216HW,2013-06-30 04:36:00,
2013-06-29 23:41:00,66.5,57.6,29.96,WNW,293,0.0,0.0,73,0.00,,,0.00,WUHU216HW,2013-06-30 04:41:00,
2013-06-29 23:46:00,66.3,57.4,29.97,WNW,293,0.0,0.0,73,0.00,,,0.00,WUHU216HW,2013-06-30 04:46:00,
2013-06-29 23:51:00,66.2,57.6,29.97,WNW,293,0.0,0.0,74,0.00,,,0.00,WUHU216HW,2013-06-30 04:51:00,
2013-06-29 23:57:00,66.0,57.4,29.97,WNW,293,0.0,0.0,74,0.00,,,0.00,WUHU216HW,2013-06-30 04:57:00,